Tracking 20242 objects as of 24-Jan-2020
HD Live streaming from Space Station
objects crossing your sky now

FENGYUN 1C DEB

Track FENGYUN 1C DEB now!
10-day predictions


NORAD ID: 31886
Int'l Code: 1999-025CKM
Perigee: 797.3 km
Apogee: 883.0 km
Inclination: 99.2 °
Period: 101.6 minutes
Semi major axis: 7211 km
RCS: 0.0012 m2 (small)
Launch date: May 10, 1999
Source: People's Republic of China (PRC)
Launch site: Taiyaun Space Center, China (TSC)

Note: This is SATELLITE DEBRIS
aabbcc
Your satellite tracking list
Your tracking list is empty




NASA's NSSDC Master Catalog

Two Line Element Set (TLE):
1 31886U 99025CKM 20023.18877107  .00001067  00000-0  53776-3 0  9992
2 31886  99.1892 176.5553 0059437 275.3021  84.1373 14.17750122647829
Source of the keplerian elements: AFSPC